Regional Weather Roundup
Issued by NWS

Home | Current Version | Previous Version | Graphics & Text | Print | Product List | Glossary On
Versions: 1 2 3 4 5 6 7 8 9 10 11 12 13 14 15 16 17 18 19 20 21 22 23 24 25 26 27 28 29 30 31 32 33 34 35 36 37 38 39 40 41 42 43 44 45 46 47 48 49 50
000
ASUS43 KDTX 241910
RWRMI
MICHIGAN HOURLY REGIONAL WEATHER ROUNDUP
NATIONAL WEATHER SERVICE DETROIT/PONTIAC MI
300 PM EDT FRI APR 24 2015

NOTE: "FAIR" INDICATES FEW OR NO CLOUDS BELOW 12,000 FEET WITH NO
SIGNIFICANT WEATHER AND/OR OBSTRUCTION TO VISIBILITY.

MIZ047>049-052>055-059>063-066>070-074>076-081>083-242000-
SOUTHEAST LOWER MICHIGAN

CITY           SKY/WX    TMP DP  RH WIND       PRES   REMARKS
ADRIAN         SUNNY     55  21  26 W8        30.04F
ALMA           SUNNY     53  19  27 NW3       30.04F
ANN ARBOR      SUNNY     56  19  23 W14G23    30.04F
BAD AXE        SUNNY     46  20  36 NW7G17    30.05F
DETROIT CITY   SUNNY     53  18  25 N10       30.04
DETROIT        SUNNY     56  19  23 NW12G18   30.04F
FLINT          SUNNY     53  20  27 NW9       30.05F
GROSSE ILE     SUNNY     46  32  57 SE12      30.04F
HILLSDALE      SUNNY     56  19  23 W6        30.03F
HOWELL         SUNNY     53  19  25 NW10      30.03F

CITY           SKY/WX    TMP DP  RH WIND       PRES   REMARKS
JACKSON        SUNNY     54  20  26 VRB5      30.03F
LAMBERTVILLE   SUNNY     57  27  30 NW6       30.04F
LANSING        SUNNY     54  19  25 SW9       30.05F
LAPEER         NOT AVBL
MASON          SUNNY     53  21  27 W9        30.04F
MONROE         SUNNY     55  25  30 W9G18     30.03F
MT. CLEMENS    MOSUNNY   49  26  41 E8        30.02F
PONTIAC        MOSUNNY   52  19  27 VRB6      30.03F
PORT HOPE        N/A     39  26  59 N8        30.05F
PORT HURON     SUNNY     48  23  37 N5G16     30.04F
TRI CITIES     SUNNY     53  19  26 NW10G18   30.04F
YPSILANTI      SUNNY     60  16  18 NW13      30.04F
$$
MIZ043>046-050>051-056>058-064>065-071>073-077>080-242000-
SOUTHWEST LOWER MICHIGAN

CITY           SKY/WX    TMP DP  RH WIND       PRES   REMARKS
BATTLE CREEK   SUNNY     57  23  26 SW9       30.03F
BENTON HARBOR  MOSUNNY   53  18  25 NW9       30.03F
BIG RAPIDS     SUNNY     53  18  25 W7        30.02F
COLDWATER      SUNNY     56  18  23 W6        30.03F
HOLLAND        SUNNY     56  23  27 MISG      30.05F
GRAND RAPIDS   MOSUNNY   54  18  24 VRB5      30.04F
KALAMAZOO      SUNNY     58  21  24 CALM      30.03F
MARSHALL       SUNNY     55  21  26 NW3G18    30.03F
MUSKEGON       SUNNY     54  19  25 W13       30.05F
$$
MIZ016>042-242000-
NORTHERN LOWER MICHIGAN

CITY           SKY/WX    TMP DP  RH WIND       PRES   REMARKS
ALPENA         SUNNY     47  12  24 NW13G21   30.04F
BEAVER ISLAND  SUNNY     43  13  30 N6        30.07F
BELLAIRE       SUNNY     44  15  32 NW6       30.07F
CADILLAC       SUNNY     49  19  30 N7        30.01F
CHARLEVOIX     SUNNY     39  15  37 N6        30.11F
FRANKFORT      CLEAR     49  13  24 N7        30.06F
GAYLORD        SUNNY     41   8  25 NW8       30.03F
GRAYLING       SUNNY     46  19  33 N10       30.03F
HARBOR SPRINGS SUNNY     37  22  56 SW8       30.07F
HOUGHTON LAKE  SUNNY     47  18  31 W8        30.02F
MANISTEE       SUNNY     45  23  42 NW9       30.07S
OSCODA         SUNNY     40  24  52 E12       30.04F
PELLSTON       SUNNY     43  14  31 NW10G17   30.06F
TRAVERSE CITY  PTSUNNY   43  23  45 N12       30.06F
$$
MIZ007>008-015-242000-
EASTERN UPPER MICHIGAN

CITY           SKY/WX    TMP DP  RH WIND       PRES   REMARKS
KINROSS        SUNNY     37  14  38 NW15G23   30.05F
MACKINAC ISLAN SUNNY     38  20  48 SW13G18   30.05F
NEWBERRY       SUNNY     40  21  47 N6G22     30.05F
S. S. MARIE    SUNNY     36  14  40 NW17G23   30.06F
$$
MIZ004>006-011>014-085-242000-
CENTRAL UPPER MICHIGAN

CITY           SKY/WX    TMP DP  RH WIND       PRES   REMARKS
MANISTIQUE     SUNNY     40  21  47 S9        30.06F
ESCANABA       SUNNY     41  25  52 S14       30.06F
MENOMINEE      MOSUNNY   43  23  45 E9        30.05F
SAWYER-GWINN   SUNNY     46  19  34 NE12      30.02F
$$
MIZ001>003-009>011-084-242000-
WESTERN UPPER MICHIGAN

CITY           SKY/WX    TMP DP  RH WIND       PRES   REMARKS
IRON MOUNTAIN  MOSUNNY   50  16  25 SE7       30.00F
HOUGHTON       SUNNY     43  22  43 E8        30.03F
COPPER HARBOR    N/A     37  27  67 E13       30.07F
IRONWOOD       PTSUNNY   46  21  36 SW7       29.96F
$$

ABBREVIATIONS USED IN REMARKS
   TC - TEMPERATURE IN CELSIUS
  WCI - WIND CHILL INDEX
   HX - HEAT INDEX
  VSB - VISIBILITY



USA.gov is the U.S. government's official web portal to all federal, state and local government web resources and services.